Weather in Haisyn

Ukraine / Vinnytsia Region     48°48′39″N   29°23′18″E
temp.,
°C
wind,
m/s
gust,
m/s
humid.,
%
clouds,
%
prec.,
mm/h
press.,
hPa
HPBL,
m
3 august, tue
tue300:00+17nnw369154 1.4 1012128
03:00+17n268937 1.6 1013195
06:00+14nnw34923 0.0 101487
09:00+19n347388 0.0 1015481
12:00+24nnw34480 0.0 10161548
15:00+26nw444078 0.0 10152399
18:00+24nnw354867 0.0 1015822
21:00+21n225876 0.0 101632
4 august, wed
wed400:00+17nne237099 0.0 101726
03:00+16ene22730 0.0 101711
06:00+15e11765 0.0 101811
09:00+22se3355100 0.0 1018430
12:00+26sse4441100 0.0 10181334
15:00+27s343997 0.0 10161828
18:00+25se3450100 0.1 1015165
21:00+20se346830 0.7 101545
5 august, thu
thu500:00+18s5118770 0.6 1016279
03:00+17sse349491 0.6 101464
06:00+17sse3791100 0.0 1014147
09:00+21sse487613 0.4 1013349
12:00+28s784520 0.0 10111257
15:00+31s78385 0.0 10091970
18:00+31s683793 0.0 10071681
21:00+26sse71547100 0.0 1007639
6 august, fri
fri600:00+19se51394100 10.3 1008357
03:00+20sw61095100 16.4 1008376
06:00+19sse6159317 0.9 1006466
09:00+24s7108385 0.9 1005709
12:00+25s91368100 0.2 10051129
15:00+22s61272100 0.7 1006771
18:00+23wsw366783 0.0 1004431
21:00+20ssw61272100 0.4 1007567
7 august, sat
sat700:00+18nw3690100 0.1 1007184
03:00+17nw479361 0.1 1007190
06:00+16nnw389712 0.0 1009268
09:00+19nnw457836 0.0 1010570
12:00+23nw555993 0.0 10111216
15:00+24nw565396 0.0 10111441
18:00+25nnw45488 0.0 10121723
21:00+19nnw34660 0.0 101348